Location: Bremen
(53.0793°N, 8.8017°E)
Time: 22:04:46
(UTC+01:00)

Transit 2A - Pass Details

Date: 04 December 2022
Orbit: 593 x 963 km, 66.7° (Epoch: 05 February)

Event Time Altitude Azimuth Distance (km) Brightness Sun altitude
Rises 17:01:08 0° 317° (NW) 3,176 9.4 -7.3°
Reaches altitude 10° 17:03:27 10° 313° (NW) 2,306 8.8 -7.6°
Maximum altitude 17:08:34 50° 239° (WSW) 1,038 7.2 -8.3°
Drops below altitude 10° 17:14:12 10° 165° (SSE) 2,531 8.8 -9.1°
Sets 17:16:51 0° 161° (SSE) 3,515 9.5 -9.4°
